EW2835 Weather Reports


Display with metric or nautical units.
time (UTC)temp
F
wind
direction
speed
MPH
gust
MPH
rain 1hr
in
rain 24hr
in
rain mn
in
humidity
%
barometer
mb
20260506154543 55 72 2.0 6.0 0.00 0.72 0.72 89 1007.0
20260506153041 55 358 2.0 8.0 0.00 0.72 0.72 90 1006.9
20260506151541 54 38 1.0 4.0 0.00 0.72 0.72 92 1007.0
20260506150048 54 54 1.0 9.0 0.00 0.72 0.72 92 1006.8
20260506144540 54 325 2.0 7.0 0.00 0.72 0.72 92 1006.8
20260506143040 54 86 1.0 5.0 0.00 0.72 0.72 92 1006.8
20260506141636 55 59 2.0 9.0 0.00 0.72 0.72 91 1006.7
20260506140036 54 292 3.0 7.0 0.00 0.72 0.72 93 1006.7
20260506134535 53 325 3.0 8.0 0.00 0.72 0.72 94 1006.8
20260506133040 53 356 2.0 7.0 0.00 0.72 0.72 94 1006.7
20260506131536 54 348 1.0 4.0 0.00 0.72 0.72 95 1006.7
20260506130033 53 36 0.0 5.0 0.00 0.72 0.72 96 1006.5
20260506124532 53 339 0.0 3.0 0.00 0.72 0.72 96 1006.6
20260506123032 53 86 2.0 5.0 0.00 0.72 0.72 95 1006.6
20260506121531 53 354 1.0 4.0 0.00 0.72 0.72 95 1006.6
20260506120049 54 61 1.0 4.0 0.00 0.72 0.72 95 1006.5
20260506114632 53 42 0.0 4.0 0.00 0.72 0.72 96 1006.5
20260506113029 53 5 2.0 5.0 0.00 0.72 0.72 96 1006.3
20260506111529 53 55 2.0 6.0 0.00 0.72 0.72 97 1005.9
20260506110030 53 9 4.0 11.0 0.00 0.72 0.72 97 1006.0
20260506104537 53 76 1.0 7.0 0.00 0.72 0.72 98 1005.9
20260506103038 52 22 1.0 10.0 0.01 0.72 0.72 98 1005.8
20260506101527 52 336 4.0 10.0 0.02 0.72 0.72 98 1005.6
20260506100024 52 2 2.0 15.0 0.02 0.72 0.72 98 1005.6
20260506094523 53 337 2.0 7.0 0.03 0.72 0.72 98 1005.4
20260506093022 52 53 1.0 6.0 0.02 0.72 0.72 98 1005.2
20260506091519 51 19 2.0 8.0 0.02 0.71 0.71 98 1005.1
20260506090016 51 317 3.0 6.0 0.02 0.70 0.70 98 1005.1
20260506084530 52 345 1.0 7.0 0.04 0.69 0.69 98 1004.9
20260506083013 52 301 0.0 5.0 0.06 0.69 0.69 98 1004.8
20260506081511 52 342 0.0 6.0 0.08 0.69 0.69 98 1004.6
20260506073008 51 352 0.0 4.0 0.16 0.63 0.63 98 1004.4
20260506071507 51 345 1.0 7.0 0.15 0.61 0.61 98 1004.3
20260506061518 51 17 1.0 5.0 0.06 0.46 0.46 97 1004.2
20260506044506 52 35 3.0 9.0 0.04 0.39 0.38 97 1004.2
20260506043005 52 342 2.0 8.0 0.05 0.37 0.36 97 1004.3
20260506041503 52 52 0.0 4.0 0.06 0.36 0.35 97 1004.4
20260506040001 52 12 1.0 4.0 0.06 0.35 0.35 97 1004.6
20260506034600 52 76 1.0 5.0 0.07 0.35 0.34 97 1004.7
20260506033100 52 76 1.0 3.0 0.07 0.32 0.31 97 1004.8
20260506031556 52 95 0.0 4.0 0.09 0.31 0.30 96 1004.9
20260506030054 52 338 2.0 7.0 0.09 0.28 0.28 96 1005.1
20260506024551 52 71 0.0 5.0 0.10 0.28 0.27 96 1005.2
20260506023102 52 33 1.0 5.0 0.10 0.25 0.24 96 1005.4
20260506021608 53 28 0.0 3.0 0.09 0.22 0.21 96 1005.5
20260506020046 53 13 1.0 4.0 0.11 0.20 0.19 96 1005.6
20260506014544 53 322 1.0 4.0 0.11 0.17 0.17 96 1005.7
20260506013053 53 7 0.0 8.0 0.09 0.15 0.14 95 1005.7
20260506011546 53 24 0.0 6.0 0.08 0.13 0.12 95 1005.7
20260506010039 53 50 2.0 6.0 0.06 0.09 0.08 95 1005.9
20260506004535 53 49 2.0 6.0 0.03 0.06 0.06 95 1006.1
20260506003033 53 76 1.0 6.0 0.03 0.06 0.05 94 1006.2
20260506001535 54 34 1.0 9.0 0.02 0.05 0.04 94 1006.4
20260506000028 54 86 1.0 6.0 0.02 0.03 0.02 94 1006.7
20260505234527 54 42 1.0 5.0 0.02 0.03 0.02 93 1006.7
20260505233027 54 359 1.0 5.0 0.02 0.02 0.02 93 1006.9
20260505231536 54 63 2.0 6.0 0.02 0.02 0.02 92 1007.0
20260505230025 54 92 3.0 8.0 0.01 0.02 0.01 91 1007.0
20260505224518 55 69 3.0 9.0 0.01 0.02 0.01 89 1007.2
20260505223017 55 61 2.0 8.0 0.00 0.01 0.00 88 1007.2
20260505221515 55 313 1.0 9.0 0.00 0.01 0.00 87 1007.2
20260505220012 55 53 1.0 8.0 0.00 0.01 0.00 87 1007.3
20260505214510 56 61 2.0 11.0 0.00 0.01 0.01 87 1007.2
20260505213015 56 333 1.0 9.0 0.00 0.01 0.01 86 1007.1
20260505211510 56 14 3.0 9.0 0.00 0.01 0.01 86 1007.2
20260505210008 57 63 1.0 5.0 0.00 0.01 0.01 86 1007.5
20260505204506 57 90 2.0 8.0 0.00 0.01 0.01 85 1007.5
20260505203004 58 360 2.0 10.0 0.00 0.01 0.01 85 1007.5
20260505201503 58 24 2.0 8.0 0.00 0.01 0.01 84 1007.4
20260505200002 58 67 3.0 10.0 0.00 0.01 0.01 83 1007.3
20260505194501 59 23 3.0 11.0 0.00 0.01 0.01 82 1007.2
20260505193100 59 328 2.0 9.0 0.00 0.01 0.01 82 1007.3
20260505191612 60 61 2.0 9.0 0.00 0.01 0.01 81 1007.3
20260505184559 61 59 2.0 10.0 0.00 0.01 0.01 79 1007.1
20260505183058 62 15 3.0 10.0 0.00 0.01 0.01 78 1007.0
20260505181557 62 92 2.0 9.0 0.00 0.01 0.01 77 1007.0
20260505174604 63 48 1.0 7.0 0.00 0.01 0.01 75 1007.1
20260505173057 64 50 1.0 5.0 0.00 0.01 0.01 74 1007.0
20260505171553 64 43 2.0 9.0 0.00 0.01 0.01 73 1007.1
20260505170107 64 27 0.0 6.0 0.00 0.01 0.01 74 1007.1
20260505164553 64 323 1.0 7.0 0.00 0.01 0.01 73 1007.2
20260505163049 65 345 2.0 6.0 0.00 0.01 0.01 72 1007.2